EW2348 Weather Reports


Display with metric or nautical units.
time (UTC)temp
F
wind
direction
speed
MPH
gust
MPH
rain 1hr
in
rain 24hr
in
rain mn
in
humidity
%
barometer
mb
20150327220918 33 270 4.0 7.0 0.00 0.00 0.00 48 1005.9
20150327220818 33 267 3.0 7.0 0.00 0.00 0.00 49 1005.9
20150327220518 33 249 5.0 9.0 0.00 0.00 0.00 48 1005.9
20150327220418 33 241 5.0 9.0 0.00 0.00 0.00 48 1006.0
20150327220218 33 227 5.0 10.0 0.00 0.00 0.00 48 1005.9
20150327220018 33 210 5.0 13.0 0.00 0.00 0.00 48 1005.8
20150327215918 33 204 4.0 13.0 0.00 0.00 0.00 48 1005.9
20150327215720 34 194 5.0 13.0 0.00 0.00 0.00 49 1005.8
20150327215520 33 197 3.0 13.0 0.00 0.00 0.00 47 1005.9
20150327215318 33 199 3.0 13.0 0.00 0.00 0.00 46 1005.7
20150327215217 33 200 5.0 13.0 0.00 0.00 0.00 46 1005.9
20150327215117 34 200 10.0 13.0 0.00 0.00 0.00 48 1005.8
20150327214818 34 207 3.0 12.0 0.00 0.00 0.00 46 1005.8
20150327214718 34 206 3.0 12.0 0.00 0.00 0.00 45 1005.6
20150327214617 34 212 7.0 12.0 0.00 0.00 0.00 46 1005.7
20150327214517 34 218 5.0 9.0 0.00 0.00 0.00 46 1005.7
20150327214318 34 231 3.0 9.0 0.00 0.00 0.00 45 1005.6
20150327214218 34 224 2.0 9.0 0.00 0.00 0.00 46 1005.7
20150327214119 34 216 3.0 9.0 0.00 0.00 0.00 45 1005.8
20150327214017 34 218 3.0 9.0 0.00 0.00 0.00 45 1005.7
20150327213519 34 234 6.0 9.0 0.00 0.00 0.00 47 1005.7
20150327213419 34 228 5.0 11.0 0.00 0.00 0.00 48 1005.5
20150327213218 34 232 4.0 11.0 0.00 0.00 0.00 48 1005.6
20150327213118 35 239 3.0 11.0 0.00 0.00 0.00 49 1005.6
20150327213018 34 246 3.0 11.0 0.00 0.00 0.00 50 1005.8
20150327212817 36 240 3.0 11.0 0.00 0.00 0.00 52 1005.5
20150327212718 35 237 1.0 11.0 0.00 0.00 0.00 52 1005.5
20150327212618 35 226 3.0 11.0 0.00 0.00 0.00 51 1005.6
20150327212517 35 237 4.0 11.0 0.00 0.00 0.00 52 1005.6
20150327212417 35 235 4.0 11.0 0.00 0.00 0.00 52 1005.6
20150327212218 34 246 3.0 6.0 0.00 0.00 0.00 52 1005.6
20150327212117 34 252 3.0 6.0 0.00 0.00 0.00 53 1005.6
20150327211917 34 252 4.0 7.0 0.00 0.00 0.00 53 1005.7
20150327211817 34 255 2.0 7.0 0.00 0.00 0.00 54 1005.7
20150327211618 34 265 1.0 7.0 0.00 0.00 0.00 53 1005.7
20150327211518 33 262 1.0 8.0 0.00 0.00 0.00 53 1005.7
20150327211417 33 264 2.0 8.0 0.00 0.00 0.00 53 1005.8
20150327211324 33 259 5.0 8.0 0.00 0.00 0.00 53 1005.8
20150327211218 33 258 4.0 8.0 0.00 0.00 0.00 53 1005.7
20150327211117 33 259 3.0 13.0 0.00 0.00 0.00 53 1005.6
20150327210917 34 260 1.0 13.0 0.00 0.00 0.00 54 1005.7
20150327210818 33 266 3.0 13.0 0.00 0.00 0.00 54 1005.6
20150327210617 33 263 5.0 13.0 0.00 0.00 0.00 54 1005.5
20150327210517 33 267 3.0 13.0 0.00 0.00 0.00 54 1005.6
20150327210417 33 269 4.0 13.0 0.00 0.00 0.00 54 1005.7
20150327210318 33 266 3.0 13.0 0.00 0.00 0.00 54 1005.4
20150327210217 33 267 3.0 13.0 0.00 0.00 0.00 54 1005.7
20150327210117 33 267 6.0 13.0 0.00 0.00 0.00 54 1005.7
20150327205917 33 260 5.0 9.0 0.00 0.00 0.00 54 1005.6
20150327205618 33 245 6.0 11.0 0.00 0.00 0.00 54 1005.6
20150327205317 33 245 5.0 11.0 0.00 0.00 0.00 56 1005.5
20150327205218 33 246 4.0 11.0 0.00 0.00 0.00 56 1005.5
20150327205118 33 239 3.0 11.0 0.00 0.00 0.00 56 1005.6
20150327205017 33 241 5.0 11.0 0.00 0.00 0.00 56 1005.5
20150327204917 33 237 3.0 13.0 0.00 0.00 0.00 55 1005.5
20150327204817 33 232 5.0 13.0 0.00 0.00 0.00 56 1005.6
20150327204618 33 231 4.0 13.0 0.00 0.00 0.00 57 1005.3
20150327204317 33 216 7.0 13.0 0.00 0.01 0.00 57 1005.4
20150327204118 34 214 4.0 13.0 0.00 0.01 0.00 57 1005.3
20150327203917 34 231 11.0 13.0 0.00 0.01 0.00 57 1005.3
20150327203817 34 242 2.0 11.0 0.00 0.01 0.00 56 1005.3
20150327203717 34 252 1.0 11.0 0.00 0.01 0.00 56 1005.4
20150327203518 35 260 5.0 8.0 0.00 0.01 0.00 57 1005.3
20150327203417 35 268 2.0 8.0 0.00 0.01 0.00 57 1005.5
20150327203317 35 266 1.0 8.0 0.00 0.01 0.00 57 1005.4
20150327203217 34 268 2.0 8.0 0.00 0.01 0.00 56 1005.4
20150327203117 34 269 5.0 9.0 0.00 0.01 0.00 56 1005.4
20150327202918 35 265 4.0 9.0 0.00 0.01 0.00 57 1005.4
20150327202717 36 262 3.0 9.0 0.00 0.01 0.00 57 1005.4
20150327202617 35 262 2.0 9.0 0.00 0.01 0.00 59 1005.4
20150327202518 35 260 3.0 9.0 0.00 0.01 0.00 59 1005.5
20150327202317 34 255 4.0 9.0 0.00 0.02 0.00 58 1005.5
20150327202217 35 253 5.0 9.0 0.00 0.02 0.00 59 1005.4
20150327202118 35 253 5.0 9.0 0.00 0.02 0.00 60 1005.3
20150327202018 35 255 2.0 9.0 0.00 0.02 0.00 59 1005.4
20150327201817 36 267 3.0 9.0 0.00 0.02 0.00 61 1005.4
20150327201717 36 270 1.0 9.0 0.00 0.02 0.00 61 1005.5
20150327201617 35 265 1.0 9.0 0.00 0.02 0.00 62 1005.3
20150327201518 35 260 1.0 9.0 0.00 0.02 0.00 62 1005.2
20150327201417 35 259 1.0 9.0 0.00 0.02 0.00 61 1005.5
20150327201217 35 254 5.0 9.0 0.00 0.02 0.00 62 1005.3
20150327201117 35 248 3.0 9.0 0.00 0.02 0.00 61 1005.3
20150327201017 34 244 5.0 9.0 0.00 0.02 0.00 61 1005.5
20150327200818 34 231 5.0 7.0 0.00 0.02 0.00 61 1005.5
20150327200717 36 224 4.0 7.0 0.00 0.02 0.00 61 1005.4
20150327200617 36 224 4.0 7.0 0.00 0.02 0.00 61 1005.5
20150327195917 35 217 4.0 13.0 0.00 0.02 0.00 63 1005.5
20150327195718 35 218 3.0 13.0 0.00 0.02 0.00 62 1005.4
20150327195521 35 225 5.0 13.0 0.00 0.02 0.00 62 1005.4
20150327195418 35 229 3.0 13.0 0.00 0.02 0.00 61 1005.3
20150327195319 35 233 3.0 13.0 0.00 0.02 0.00 60 1005.4
20150327195217 35 236 7.0 13.0 0.00 0.02 0.00 60 1005.3
20150327195119 35 233 4.0 11.0 0.00 0.02 0.00 60 1005.3
20150327194918 35 235 3.0 7.0 0.00 0.02 0.00 60 1005.3
20150327194317 35 240 3.0 9.0 0.00 0.02 0.00 61 1005.4
20150327194018 34 248 3.0 12.0 0.00 0.02 0.00 58 1005.3
20150327193817 35 242 5.0 12.0 0.00 0.02 0.00 58 1005.4
20150327193617 35 249 4.0 12.0 0.00 0.02 0.00 58 1005.4
20150327193518 35 250 2.0 12.0 0.00 0.02 0.00 57 1005.3
20150327193417 34 255 1.0 12.0 0.00 0.02 0.00 56 1005.4
20150327193317 34 251 3.0 12.0 0.00 0.02 0.00 56 1005.2
20150327193018 35 239 5.0 9.0 0.00 0.02 0.00 57 1005.3
20150327192817 35 250 4.0 9.0 0.00 0.02 0.00 58 1005.1
20150327192517 35 250 5.0 9.0 0.00 0.02 0.00 56 1005.2
20150327192318 35 257 5.0 10.0 0.00 0.02 0.00 56 1005.1
20150327192117 36 265 4.0 10.0 0.00 0.02 0.00 55 1005.1
20150327192017 36 263 4.0 10.0 0.00 0.02 0.00 55 1005.2
20150327191918 36 264 5.0 10.0 0.00 0.02 0.00 55 1005.2
20150327191817 36 263 5.0 10.0 0.00 0.02 0.00 56 1005.3
20150327191717 36 261 2.0 10.0 0.00 0.02 0.00 55 1005.4
20150327191617 35 259 2.0 10.0 0.00 0.02 0.00 55 1005.1
20150327191322 37 254 5.0 9.0 0.00 0.02 0.00 57 1005.3
20150327191217 37 254 4.0 9.0 0.00 0.02 0.00 57 1005.4
20150327191117 37 249 2.0 9.0 0.00 0.02 0.00 57 1005.2
20150327190918 37 251 3.0 9.0 0.00 0.02 0.00 58 1005.2
20150327190818 37 247 2.0 9.0 0.00 0.02 0.00 57 1005.2
20150327190717 36 250 3.0 9.0 0.00 0.02 0.00 57 1005.2
20150327190617 36 254 3.0 9.0 0.00 0.02 0.00 58 1005.2
20150327190217 36 261 6.0 9.0 0.00 0.04 0.00 59 1005.3
20150327190117 36 270 3.0 7.0 0.00 0.04 0.00 58 1005.2
20150327190017 35 273 4.0 7.0 0.00 0.04 0.00 58 1005.3
20150327185918 35 280 3.0 8.0 0.00 0.04 0.00 58 1005.1
20150327185818 35 284 5.0 8.0 0.00 0.04 0.00 59 1005.3
20150327185717 35 286 4.0 8.0 0.00 0.04 0.00 59 1005.2
20150327185617 36 285 5.0 9.0 0.00 0.04 0.00 59 1005.3
20150327185517 35 279 1.0 9.0 0.00 0.04 0.00 59 1005.2
20150327185418 35 273 4.0 9.0 0.00 0.04 0.00 59 1005.3
20150327185317 35 267 3.0 9.0 0.00 0.04 0.00 58 1005.4
20150327185217 35 267 2.0 9.0 0.00 0.04 0.00 57 1005.3
20150327185017 35 261 5.0 9.0 0.00 0.04 0.00 58 1005.6
20150327184917 36 256 3.0 9.0 0.00 0.04 0.00 56 1005.2
20150327184818 36 257 3.0 9.0 0.00 0.04 0.00 56 1005.3
20150327184718 36 260 3.0 9.0 0.00 0.04 0.00 56 1005.4
20150327184417 37 267 5.0 9.0 0.00 0.04 0.00 58 1005.3
20150327184218 36 261 2.0 9.0 0.00 0.04 0.00 57 1005.3
20150327184117 36 259 4.0 9.0 0.00 0.04 0.00 58 1005.5
20150327183817 36 251 5.0 7.0 0.00 0.04 0.00 60 1005.4
20150327183618 36 241 3.0 7.0 0.00 0.04 0.00 60 1005.4
20150327183417 35 253 3.0 8.0 0.00 0.04 0.00 62 1005.4
20150327183317 35 250 3.0 8.0 0.00 0.04 0.00 61 1005.4
20150327183217 35 257 1.0 8.0 0.00 0.04 0.00 61 1005.4
20150327183018 34 264 3.0 8.0 0.00 0.04 0.00 61 1005.5
20150327182817 34 268 5.0 8.0 0.00 0.04 0.00 61 1005.4
20150327182717 34 265 4.0 8.0 0.00 0.04 0.00 61 1005.4
20150327182418 34 256 3.0 8.0 0.00 0.04 0.00 61 1005.4
20150327182317 35 253 5.0 9.0 0.00 0.04 0.00 62 1005.6
20150327182117 36 245 3.0 9.0 0.00 0.04 0.00 62 1005.5
20150327182017 36 244 2.0 9.0 0.00 0.04 0.00 62 1005.4
20150327181917 36 248 1.0 9.0 0.00 0.04 0.00 62 1005.4
20150327181717 35 265 3.0 9.0 0.00 0.04 0.00 62 1005.2
20150327181517 35 270 4.0 9.0 0.00 0.04 0.00 63 1005.2
20150327181417 36 270 5.0 9.0 0.00 0.04 0.00 62 1005.2
20150327181117 35 284 3.0 7.0 0.00 0.04 0.00 63 1005.3
20150327181017 35 285 4.0 7.0 0.00 0.04 0.00 63 1005.4
20150327180918 35 277 3.0 7.0 0.00 0.04 0.00 63 1005.3
20150327180817 35 271 3.0 7.0 0.00 0.04 0.00 62 1005.3
20150327180717 35 268 5.0 9.0 0.00 0.04 0.00 62 1005.3
20150327180617 36 268 2.0 9.0 0.00 0.04 0.00 60 1005.3
20150327180318 36 264 2.0 9.0 0.00 0.04 0.00 60 1005.3
20150327180217 36 256 2.0 9.0 0.00 0.04 0.00 60 1005.3
20150327180118 36 250 2.0 9.0 0.00 0.04 0.00 60 1005.3
20150327180018 36 245 2.0 9.0 0.00 0.04 0.00 60 1005.2
20150327175917 36 245 3.0 9.0 0.00 0.04 0.00 59 1005.3
20150327175717 36 228 5.0 9.0 0.00 0.04 0.00 56 1005.2
20150327175518 36 213 3.0 9.0 0.00 0.04 0.00 55 1005.1
20150327175417 36 209 2.0 9.0 0.00 0.04 0.00 55 1005.1
20150327175118 36 214 1.0 12.0 0.00 0.04 0.00 54 1005.2
20150327175017 36 212 3.0 12.0 0.00 0.04 0.00 53 1005.3
20150327174917 36 203 3.0 12.0 0.00 0.04 0.00 53 1005.2
20150327174817 36 206 4.0 12.0 0.00 0.04 0.00 54 1005.2
20150327174717 36 215 3.0 12.0 0.00 0.04 0.00 54 1005.1
20150327174618 36 212 3.0 12.0 0.00 0.04 0.00 54 1005.3
20150327174518 36 211 3.0 12.0 0.00 0.04 0.00 53 1005.3
20150327174317 38 210 3.0 12.0 0.00 0.05 0.00 60 1005.2
20150327174217 37 215 5.0 8.0 0.00 0.05 0.00 54 1005.3
20150327174017 37 223 2.0 8.0 0.00 0.05 0.00 55 1005.3
20150327173917 37 218 1.0 8.0 0.00 0.05 0.00 55 1005.2
20150327173717 36 211 2.0 9.0 0.00 0.05 0.00 56 1005.3
20150327173618 37 209 3.0 9.0 0.00 0.05 0.00 57 1005.2
20150327173417 36 208 2.0 9.0 0.00 0.05 0.00 58 1005.3
20150327173217 36 210 3.0 9.0 0.00 0.05 0.00 58 1005.5
20150327173118 35 215 3.0 9.0 0.00 0.05 0.00 58 1005.4
20150327172917 35 227 3.0 9.0 0.00 0.05 0.00 58 1005.3
20150327172817 35 235 4.0 9.0 0.00 0.05 0.00 57 1005.2
20150327172717 35 239 4.0 9.0 0.00 0.05 0.00 57 1005.4
20150327172518 35 250 5.0 9.0 0.00 0.05 0.00 57 1005.2
20150327172417 35 248 3.0 9.0 0.00 0.05 0.00 57 1005.3
20150327172317 36 248 3.0 9.0 0.00 0.05 0.00 56 1005.5
20150327172118 36 232 5.0 9.0 0.00 0.05 0.00 58 1005.4
20150327172017 37 214 4.0 9.0 0.00 0.05 0.00 58 1005.4
20150327171717 36 221 2.0 9.0 0.00 0.05 0.00 56 1005.3
20150327171618 36 213 2.0 9.0 0.00 0.05 0.00 55 1005.4
20150327171417 36 214 2.0 9.0 0.00 0.05 0.00 56 1005.3
20150327171317 36 206 3.0 9.0 0.00 0.05 0.00 57 1005.3
20150327171017 36 218 3.0 9.0 0.00 0.05 0.00 56 1005.4
20150327170917 36 208 4.0 9.0 0.00 0.05 0.00 55 1005.2
20150327170817 36 204 5.0 9.0 0.00 0.05 0.00 55 1005.2
20150327170717 36 197 3.0 9.0 0.00 0.05 0.00 55 1005.3
20150327170617 36 201 4.0 9.0 0.00 0.05 0.00 54 1005.4
20150327170417 36 196 3.0 7.0 0.00 0.05 0.00 55 1005.2
20150327170117 36 199 3.0 9.0 0.00 0.05 0.00 55 1005.1
20150327165917 36 205 3.0 9.0 0.00 0.05 0.00 55 1005.2
20150327165817 36 199 1.0 9.0 0.00 0.05 0.00 55 1005.3
20150327165717 36 203 3.0 9.0 0.00 0.05 0.00 54 1005.1
20150327165617 36 206 5.0 9.0 0.00 0.05 0.00 54 1005.1
20150327165418 36 228 3.0 9.0 0.00 0.05 0.00 55 1005.3
20150327165217 36 222 1.0 9.0 0.00 0.05 0.00 54 1005.2
20150327165117 36 231 1.0 7.0 0.00 0.05 0.00 54 1005.2
20150327165018 36 237 4.0 7.0 0.00 0.05 0.00 54 1005.4
20150327164917 36 237 5.0 7.0 0.00 0.05 0.00 53 1005.1
20150327164618 36 248 5.0 7.0 0.00 0.06 0.00 53 1005.2
20150327164517 36 243 3.0 7.0 0.00 0.06 0.00 53 1005.1
20150327164317 36 225 3.0 7.0 0.00 0.06 0.00 53 1005.2
20150327164118 37 223 3.0 7.0 0.00 0.06 0.00 53 1005.4
20150327164017 37 224 1.0 7.0 0.00 0.06 0.00 53 1005.1
20150327163917 37 235 3.0 7.0 0.00 0.06 0.00 53 1005.1
20150327163817 36 232 2.0 7.0 0.00 0.06 0.00 52 1005.2
20150327163617 36 245 6.0 7.0 0.00 0.06 0.00 53 1005.2
20150327163518 37 246 3.0 7.0 0.00 0.06 0.00 54 1005.3
20150327163418 37 254 3.0 7.0 0.00 0.06 0.00 54 1005.2
20150327163317 37 258 5.0 7.0 0.00 0.06 0.00 54 1005.2
20150327163217 37 254 3.0 7.0 0.00 0.06 0.00 54 1005.1
20150327163117 37 260 3.0 7.0 0.00 0.06 0.00 53 1005.3
20150327162917 37 257 2.0 6.0 0.00 0.06 0.00 54 1005.3
20150327162817 37 259 2.0 6.0 0.00 0.06 0.00 54 1005.1
20150327162618 36 261 2.0 9.0 0.00 0.06 0.00 54 1005.2
20150327162417 36 260 3.0 9.0 0.00 0.06 0.00 53 1005.2
20150327162317 36 260 4.0 9.0 0.00 0.06 0.00 54 1005.2
20150327162217 36 265 3.0 9.0 0.00 0.06 0.00 54 1005.2
20150327161617 37 266 6.0 15.0 0.00 0.06 0.00 53 1005.1
20150327161317 36 270 3.0 15.0 0.00 0.06 0.00 52 1005.0
20150327161217 37 270 5.0 15.0 0.00 0.06 0.00 53 1005.2
20150327161117 37 270 3.0 15.0 0.00 0.06 0.00 53 1005.1
20150327160917 37 266 3.0 15.0 0.00 0.06 0.00 53 1005.1
20150327160818 37 269 3.0 15.0 0.00 0.06 0.00 53 1005.1
20150327160717 36 270 2.0 15.0 0.00 0.06 0.00 53 1005.1
20150327160517 36 269 6.0 15.0 0.00 0.06 0.00 52 1005.1
20150327160318 36 270 6.0 15.0 0.00 0.06 0.00 52 1005.3
20150327160217 36 267 6.0 15.0 0.00 0.06 0.00 52 1005.2
20150327160117 36 267 6.0 15.0 0.00 0.06 0.00 52 1005.2
20150327160017 36 266 6.0 15.0 0.00 0.06 0.00 52 1005.2
20150327155817 37 262 5.0 8.0 0.00 0.06 0.00 53 1005.2
20150327155718 37 257 3.0 7.0 0.00 0.06 0.00 56 1005.3
20150327155617 37 246 1.0 7.0 0.00 0.06 0.00 52 1005.4
20150327155517 37 242 3.0 7.0 0.00 0.06 0.00 51 1005.3
20150327155417 37 238 3.0 7.0 0.00 0.06 0.00 51 1005.4
20150327155217 37 239 5.0 7.0 0.00 0.06 0.00 55 1005.3
20150327154917 38 237 3.0 8.0 0.00 0.06 0.00 56 1005.3
20150327154817 38 229 2.0 8.0 0.00 0.06 0.00 56 1005.5
20150327154717 37 235 3.0 8.0 0.00 0.06 0.00 51 1005.5
20150327154618 38 247 3.0 8.0 0.00 0.06 0.00 56 1005.3
20150327154417 37 262 3.0 11.0 0.00 0.06 0.00 52 1005.5
20150327154217 37 266 5.0 11.0 0.00 0.06 0.00 57 1005.4
20150327154117 37 266 2.0 11.0 0.00 0.06 0.00 52 1005.4
20150327154018 37 268 3.0 11.0 0.00 0.06 0.00 52 1005.5
20150327153917 37 266 3.0 11.0 0.00 0.06 0.00 52 1005.2
20150327153817 37 261 4.0 13.0 0.00 0.06 0.00 52 1005.3
20150327153617 38 259 5.0 13.0 0.00 0.06 0.00 56 1005.3
20150327153417 37 257 4.0 13.0 0.00 0.06 0.00 51 1005.2
20150327153317 37 256 5.0 13.0 0.00 0.06 0.00 52 1005.5
20150327153217 37 250 5.0 13.0 0.00 0.06 0.00 52 1005.3
20150327153117 36 250 3.0 13.0 0.00 0.06 0.00 51 1005.4
20150327153017 37 249 5.0 13.0 0.00 0.06 0.00 51 1005.3
20150327152617 37 273 3.0 7.0 0.00 0.06 0.00 51 1005.3
20150327152517 37 270 3.0 7.0 0.00 0.06 0.00 52 1005.3
20150327152418 37 271 3.0 7.0 0.00 0.06 0.00 52 1005.3
20150327152217 37 271 2.0 7.0 0.00 0.06 0.00 56 1005.3
20150327152117 37 270 3.0 7.0 0.00 0.06 0.00 51 1005.6
20150327151918 37 266 4.0 9.0 0.00 0.07 0.00 51 1005.3
20150327151817 37 265 4.0 9.0 0.00 0.07 0.00 50 1005.5
20150327151717 38 262 5.0 9.0 0.00 0.07 0.00 55 1005.3
20150327151618 38 261 4.0 9.0 0.00 0.07 0.00 55 1005.5
20150327151417 39 256 5.0 9.0 0.00 0.07 0.00 56 1005.2
20150327151217 38 260 1.0 9.0 0.00 0.07 0.00 55 1005.3
20150327151119 36 262 1.0 9.0 0.00 0.07 0.00 50 1005.3
20150327151018 37 262 2.0 7.0 0.00 0.07 0.00 55 1005.4
20150327150717 38 260 3.0 7.0 0.00 0.07 0.00 55 1005.3
20150327150517 38 264 3.0 7.0 0.00 0.07 0.00 56 1005.3
20150327150417 38 266 3.0 7.0 0.00 0.07 0.00 56 1005.2
20150327150317 39 267 3.0 7.0 0.00 0.07 0.00 55 1005.2
20150327150217 38 266 2.0 7.0 0.00 0.07 0.00 53 1005.1
20150327150018 38 266 4.0 7.0 0.00 0.07 0.00 54 1005.2
20150327145917 37 266 3.0 8.0 0.00 0.07 0.00 49 1005.2
20150327145618 39 266 2.0 8.0 0.00 0.07 0.00 56 1005.3
20150327145518 39 266 3.0 8.0 0.00 0.07 0.00 55 1005.2
20150327145417 40 267 5.0 8.0 0.00 0.07 0.00 56 1005.2
20150327145217 39 259 3.0 8.0 0.00 0.07 0.00 55 1005.1
20150327145118 40 259 3.0 9.0 0.00 0.07 0.00 56 1005.1
20150327144717 40 257 1.0 9.0 0.00 0.07 0.00 57 1004.9
20150327144517 38 259 5.0 9.0 0.00 0.07 0.00 55 1004.9
20150327144417 37 263 5.0 9.0 0.00 0.07 0.00 51 1005.0
20150327144317 38 264 5.0 9.0 0.00 0.07 0.00 55 1004.9
20150327144217 37 263 3.0 9.0 0.00 0.07 0.00 50 1005.2
20150327144117 38 267 7.0 9.0 0.00 0.07 0.00 55 1005.0
20150327144017 38 270 3.0 7.0 0.00 0.07 0.00 55 1005.0
20150327143817 38 261 4.0 13.0 0.00 0.07 0.00 55 1005.0
20150327143717 38 261 3.0 13.0 0.00 0.07 0.00 56 1005.2
20150327143518 37 264 3.0 13.0 0.00 0.07 0.00 56 1005.1
20150327143417 37 263 4.0 13.0 0.00 0.07 0.00 53 1005.0
20150327143217 37 267 3.0 13.0 0.00 0.07 0.00 53 1005.1
20150327143117 37 268 4.0 13.0 0.00 0.07 0.00 52 1004.9
20150327143017 38 267 6.0 13.0 0.00 0.07 0.00 57 1004.9
20150327142817 38 270 3.0 11.0 0.00 0.07 0.00 56 1004.9
20150327142317 37 267 3.0 10.0 0.00 0.08 0.00 52 1005.0
20150327142217 36 265 4.0 9.0 0.00 0.08 0.00 51 1004.8
20150327142117 37 258 5.0 9.0 0.00 0.08 0.00 51 1004.9
20150327141917 37 257 5.0 9.0 0.00 0.08 0.00 53 1004.9
20150327141818 38 255 5.0 9.0 0.00 0.08 0.00 58 1004.9
20150327141718 38 254 2.0 6.0 0.00 0.08 0.00 58 1005.1
20150327141617 38 254 3.0 6.0 0.00 0.08 0.00 57 1005.0
20150327141517 37 255 2.0 6.0 0.00 0.08 0.00 53 1004.9
20150327141417 37 255 2.0 6.0 0.00 0.08 0.00 53 1005.0
20150327141317 38 257 3.0 6.0 0.00 0.08 0.00 58 1004.8
20150327141217 38 261 3.0 5.0 0.00 0.08 0.00 58 1004.9
20150327140917 37 269 2.0 6.0 0.00 0.08 0.00 54 1004.9
20150327140817 36 270 1.0 7.0 0.00 0.09 0.00 53 1005.0
20150327140718 36 270 3.0 9.0 0.00 0.09 0.00 54 1005.0
20150327140517 36 270 3.0 9.0 0.00 0.09 0.00 54 1004.9
20150327140417 36 270 3.0 9.0 0.00 0.09 0.00 54 1004.9
20150327140217 36 269 3.0 9.0 0.00 0.09 0.00 54 1004.8
20150327140117 36 268 3.0 9.0 0.00 0.09 0.00 54 1005.0
20150327140017 36 268 3.0 9.0 0.00 0.09 0.00 54 1004.9
20150327135617 36 264 3.0 6.0 0.00 0.09 0.00 54 1004.8
20150327135517 36 259 4.0 6.0 0.00 0.09 0.00 55 1004.8
20150327135417 36 254 3.0 6.0 0.00 0.09 0.00 55 1004.9
20150327135317 36 253 5.0 6.0 0.00 0.09 0.00 56 1005.0
20150327135117 36 252 3.0 6.0 0.00 0.09 0.00 56 1004.8
20150327135017 35 248 4.0 6.0 0.00 0.09 0.00 57 1004.9
20150327134917 36 240 3.0 9.0 0.00 0.09 0.00 56 1005.0
20150327134817 36 242 4.0 9.0 0.00 0.09 0.00 56 1004.9
20150327134717 36 247 1.0 9.0 0.00 0.09 0.00 56 1004.7
20150327134317 35 259 3.0 9.0 0.00 0.09 0.00 58 1004.9
20150327134017 35 261 3.0 9.0 0.00 0.09 0.00 59 1004.8
20150327133917 35 269 3.0 9.0 0.00 0.09 0.00 59 1004.7
20150327133817 35 267 7.0 9.0 0.00 0.09 0.00 60 1004.7
20150327133717 35 258 3.0 9.0 0.00 0.09 0.00 60 1004.8
20150327133617 36 258 7.0 9.0 0.00 0.09 0.00 60 1004.7
20150327133317 35 256 3.0 7.0 0.00 0.09 0.00 61 1004.9
20150327133218 35 256 3.0 7.0 0.00 0.09 0.00 61 1004.7
20150327133117 35 252 4.0 7.0 0.00 0.09 0.00 61 1004.8
20150327133017 35 259 3.0 6.0 0.00 0.09 0.00 62 1004.9
20150327132918 35 258 3.0 6.0 0.00 0.09 0.00 62 1004.8
20150327132817 35 261 5.0 6.0 0.00 0.09 0.00 62 1004.6
20150327132617 35 267 3.0 6.0 0.00 0.09 0.00 62 1004.8
20150327132517 36 264 3.0 6.0 0.00 0.09 0.00 62 1004.8
20150327132417 36 273 3.0 5.0 0.00 0.09 0.00 63 1004.8
20150327132317 36 279 1.0 5.0 0.00 0.09 0.00 63 1004.8
20150327132117 36 275 1.0 6.0 0.00 0.09 0.00 63 1004.6
20150327132017 36 284 1.0 9.0 0.00 0.09 0.00 62 1004.8
20150327131917 35 283 3.0 10.0 0.00 0.09 0.00 64 1004.7
20150327131816 35 285 2.0 10.0 0.00 0.09 0.00 64 1004.7
20150327131717 35 291 2.0 10.0 0.00 0.09 0.00 64 1004.8
20150327131617 35 291 3.0 10.0 0.00 0.09 0.00 64 1004.6
20150327131517 35 292 2.0 10.0 0.00 0.09 0.00 64 1004.7
20150327131417 35 283 2.0 10.0 0.00 0.11 0.00 64 1004.6
20150327131217 35 281 3.0 10.0 0.00 0.11 0.00 64 1004.7
20150327131117 35 280 4.0 10.0 0.00 0.11 0.00 64 1004.5
20150327131017 35 269 3.0 10.0 0.00 0.12 0.00 64 1004.7
20150327130917 35 269 6.0 10.0 0.00 0.13 0.00 64 1004.9
20150327130817 35 263 5.0 9.0 0.00 0.13 0.00 64 1004.7
20150327130517 35 250 3.0 6.0 0.00 0.13 0.00 64 1004.8
20150327130317 34 258 2.0 6.0 0.00 0.14 0.00 64 1004.8
20150327130017 35 270 1.0 5.0 0.00 0.14 0.00 65 1004.8
20150327125817 35 267 1.0 5.0 0.00 0.14 0.00 66 1004.6
20150327125717 35 268 1.0 5.0 0.00 0.14 0.00 66 1004.8
20150327125617 35 270 1.0 5.0 0.00 0.14 0.00 66 1004.9
20150327125517 35 275 1.0 5.0 0.00 0.14 0.00 67 1004.8
20150327125417 35 265 1.0 5.0 0.00 0.15 0.00 68 1004.8
20150327125317 35 264 1.0 5.0 0.00 0.15 0.00 68 1004.8
20150327125217 35 265 0.0 5.0 0.00 0.15 0.00 68 1004.8
20150327125116 34 268 2.0 7.0 0.00 0.15 0.00 68 1004.8
20150327125017 34 270 1.0 7.0 0.00 0.15 0.00 68 1004.7
20150327124917 34 270 2.0 7.0 0.00 0.15 0.00 68 1004.9
20150327124617 33 273 3.0 7.0 0.00 0.15 0.00 71 1004.7
20150327124517 33 273 1.0 7.0 0.00 0.15 0.00 72 1004.8
20150327124217 33 274 3.0 7.0 0.00 0.17 0.00 72 1004.7
20150327123717 33 263 1.0 5.0 0.00 0.17 0.00 73 1005.0
20150327123617 33 263 1.0 5.0 0.00 0.17 0.00 73 1004.7
20150327123516 32 263 3.0 5.0 0.00 0.17 0.00 73 1004.8
20150327123417 32 263 1.0 5.0 0.00 0.17 0.00 73 1004.8
20150327123017 32 265 1.0 5.0 0.00 0.17 0.00 74 1005.1
20150327122917 32 264 1.0 5.0 0.00 0.17 0.00 74 1005.0
20150327122717 32 264 2.0 5.0 0.00 0.17 0.00 75 1004.9
20150327122517 32 264 1.0 5.0 0.00 0.17 0.00 75 1005.1
20150327122417 32 267 1.0 5.0 0.00 0.17 0.00 75 1004.9
20150327122317 32 267 2.0 5.0 0.00 0.17 0.00 75 1004.9
20150327122017 32 269 1.0 4.0 0.00 0.35 0.00 77 1005.0
20150327121917 32 272 1.0 4.0 0.00 0.35 0.00 77 1004.9
20150327121818 32 273 1.0 4.0 0.00 0.35 0.00 78 1005.0
20150327121617 32 273 1.0 4.0 0.00 0.35 0.00 78 1005.1
20150327121518 32 273 2.0 4.0 0.00 0.35 0.00 78 1005.0
20150327121416 32 270 1.0 4.0 0.00 0.35 0.00 78 1005.1
20150327121317 32 270 2.0 4.0 0.00 0.35 0.00 78 1005.0
20150327121217 31 270 1.0 4.0 0.00 0.35 0.00 78 1005.1
20150327121117 31 270 1.0 3.0 0.00 0.35 0.00 78 1004.8
20150327121017 31 270 1.0 3.0 0.00 0.35 0.00 77 1005.0
20150327120917 31 270 1.0 3.0 0.00 0.35 0.00 77 1004.9
20150327120717 31 270 1.0 2.0 0.00 0.35 0.00 77 1004.8
20150327120617 31 270 1.0 3.0 0.00 0.35 0.00 76 1005.0
20150327120517 31 270 1.0 3.0 0.00 0.35 0.00 76 1005.0
20150327120417 31 270 1.0 3.0 0.00 0.35 0.00 76 1005.0
20150327120316 31 270 1.0 3.0 0.00 0.35 0.00 76 1004.8
20150327120217 31 270 1.0 3.0 0.00 0.35 0.00 76 1004.8
20150327120117 31 270 1.0 3.0 0.00 0.35 0.00 76 1004.7
20150327115917 31 270 1.0 3.0 0.00 0.35 0.00 76 1004.8
20150327115817 31 270 1.0 3.0 0.00 0.35 0.00 76 1004.7
20150327115717 31 270 1.0 3.0 0.00 0.35 0.00 76 1004.7
20150327115617 31 270 2.0 5.0 0.00 0.35 0.00 76 1004.8
20150327115517 31 270 1.0 5.0 0.00 0.35 0.00 76 1004.7
20150327115417 31 270 1.0 5.0 0.00 0.35 0.00 75 1004.7
20150327115317 31 270 1.0 5.0 0.00 0.35 0.00 75 1004.5
20150327115217 31 270 1.0 5.0 0.00 0.35 0.00 75 1004.7
20150327115117 31 270 1.0 5.0 0.00 0.35 0.00 75 1004.5
20150327115017 31 270 1.0 5.0 0.00 0.35 0.00 75 1004.6
20150327114917 31 270 1.0 5.0 0.00 0.35 0.00 75 1004.5
20150327114817 31 270 0.0 5.0 0.00 0.35 0.00 75 1004.7
20150327114717 31 268 1.0 5.0 0.00 0.35 0.00 75 1004.6
20150327114617 31 265 1.0 3.0 0.00 0.35 0.00 75 1004.9
20150327114518 31 265 1.0 3.0 0.00 0.35 0.00 75 1004.6
20150327114317 31 265 1.0 3.0 0.00 0.35 0.00 75 1004.6
20150327114218 31 265 1.0 3.0 0.00 0.35 0.00 75 1004.8
20150327114117 31 264 0.0 3.0 0.00 0.35 0.00 75 1004.8
20150327114017 31 264 1.0 3.0 0.00 0.35 0.00 75 1004.9
20150327113917 31 264 1.0 3.0 0.00 0.35 0.00 75 1004.8
20150327113817 31 264 1.0 3.0 0.00 0.35 0.00 75 1004.7
20150327113718 31 264 2.0 3.0 0.00 0.35 0.00 75 1004.7
20150327113617 31 264 1.0 2.0 0.00 0.35 0.00 74 1004.9
20150327113517 31 263 1.0 2.0 0.00 0.35 0.00 74 1004.9
20150327113217 31 248 0.0 2.0 0.00 0.35 0.00 74 1004.7
20150327113117 31 245 0.0 2.0 0.00 0.35 0.00 74 1004.5
20150327112917 31 241 1.0 2.0 0.00 0.35 0.00 74 1004.7
20150327112817 31 235 1.0 2.0 0.00 0.35 0.00 74 1004.5
20150327112717 31 240 1.0 2.0 0.00 0.35 0.00 74 1004.8
20150327112617 31 247 0.0 2.0 0.00 0.35 0.00 74 1004.5
20150327112417 31 256 0.0 3.0 0.00 0.35 0.00 73 1004.5
20150327112317 31 261 1.0 3.0 0.00 0.35 0.00 73 1004.5
20150327112216 31 264 0.0 3.0 0.00 0.35 0.00 73 1004.4
20150327111817 31 270 1.0 3.0 0.00 0.35 0.00 73 1004.4
20150327111717 31 270 1.0 3.0 0.00 0.35 0.00 73 1004.4
20150327111617 31 270 1.0 3.0 0.00 0.35 0.00 73 1004.4
20150327111517 31 270 1.0 3.0 0.00 0.35 0.00 73 1004.1
20150327111417 31 270 1.0 3.0 0.00 0.35 0.00 73 1004.2
20150327111317 31 270 1.0 3.0 0.00 0.35 0.00 73 1004.3
20150327111217 31 270 1.0 3.0 0.00 0.35 0.00 73 1004.4
20150327111116 31 267 0.0 3.0 0.00 0.35 0.00 73 1004.2
20150327110817 31 268 1.0 3.0 0.00 0.35 0.00 72 1004.2
20150327110617 32 268 1.0 3.0 0.00 0.35 0.00 72 1004.1
20150327110517 31 268 3.0 3.0 0.00 0.35 0.00 73 1003.9
20150327110417 31 268 1.0 3.0 0.00 0.35 0.00 73 1004.1
20150327110217 31 268 1.0 3.0 0.00 0.35 0.00 73 1004.1
20150327110117 31 270 1.0 3.0 0.00 0.35 0.00 74 1004.1
20150327105717 31 270 1.0 2.0 0.00 0.35 0.00 74 1003.9
20150327105617 31 270 1.0 2.0 0.00 0.35 0.00 74 1003.8
20150327105416 31 270 1.0 2.0 0.00 0.35 0.00 74 1003.8
20150327105316 31 270 1.0 2.0 0.00 0.35 0.00 74 1003.9
20150327105117 31 270 1.0 2.0 0.00 0.35 0.00 73 1003.9
20150327105017 31 270 1.0 2.0 0.00 0.35 0.00 73 1003.9
20150327104917 32 270 0.0 2.0 0.00 0.35 0.00 73 1004.0
20150327104816 32 270 1.0 2.0 0.00 0.35 0.00 73 1004.0
20150327104717 32 270 1.0 2.0 0.00 0.35 0.00 73 1003.9
20150327104517 32 270 1.0 2.0 0.00 0.35 0.00 73 1004.0
20150327104417 32 270 1.0 2.0 0.00 0.35 0.00 73 1003.8
20150327104117 32 270 1.0 2.0 0.00 0.35 0.00 72 1004.0
20150327104018 32 270 1.0 2.0 0.00 0.35 0.00 72 1003.9
20150327103917 32 270 1.0 2.0 0.00 0.35 0.00 71 1003.8
20150327103817 32 270 1.0 2.0 0.00 0.35 0.00 72 1004.0
20150327103617 32 270 1.0 2.0 0.00 0.35 0.00 72 1003.8
20150327103517 32 270 1.0 2.0 0.00 0.35 0.00 72 1003.7
20150327103417 32 270 1.0 2.0 0.00 0.35 0.00 73 1003.8
20150327103317 32 270 0.0 2.0 0.00 0.35 0.00 73 1003.6
20150327103216 32 270 1.0 2.0 0.00 0.35 0.00 72 1003.8
20150327103017 32 270 1.0 2.0 0.00 0.35 0.00 73 1003.7
20150327102917 32 270 0.0 2.0 0.00 0.35 0.00 73 1003.6
20150327102817 32 270 0.0 2.0 0.00 0.35 0.00 72 1003.6
20150327102716 32 270 0.0 2.0 0.00 0.35 0.00 72 1003.6
20150327102417 32 270 0.0 1.0 0.00 0.35 0.00 72 1003.7
20150327102317 32 270 0.0 1.0 0.00 0.35 0.00 72 1003.5
20150327102117 32 270 0.0 1.0 0.00 0.40 0.00 72 1003.6
20150327101917 32 270 0.0 1.0 0.00 0.40 0.00 72 1003.8
20150327101817 32 268 0.0 1.0 0.00 0.40 0.00 71 1003.6
20150327101717 32 263 0.0 1.0 0.00 0.40 0.00 71 1003.6
20150327101617 32 258 1.0 1.0 0.00 0.40 0.00 71 1003.5
20150327101517 32 252 1.0 1.0 0.00 0.40 0.00 71 1003.7
20150327101417 32 247 0.0 1.0 0.00 0.40 0.00 71 1003.7
20150327101317 33 244 0.0 1.0 0.00 0.40 0.00 71 1003.7
20150327101217 33 240 0.0 1.0 0.00 0.40 0.00 71 1003.7
20150327101117 33 235 1.0 1.0 0.00 0.41 0.00 71 1003.6
20150327101017 33 230 0.0 1.0 0.00 0.41 0.00 71 1003.8
20150327100816 33 225 0.0 1.0 0.00 0.41 0.00 70 1003.8
20150327100717 33 225 0.0 1.0 0.00 0.41 0.00 70 1003.8
20150327100517 33 225 0.0 1.0 0.00 0.45 0.00 70 1003.6
20150327100417 33 225 0.0 1.0 0.00 0.45 0.00 70 1003.7
20150327100317 33 225 0.0 1.0 0.00 0.45 0.00 70 1003.7
20150327100017 33 225 0.0 1.0 0.00 0.45 0.00 70 1003.7
20150327095617 33 0 0.0 0.0 0.00 0.45 0.00 70 1003.6
20150327095517 33 0 0.0 0.0 0.00 0.46 0.00 71 1003.7
20150327095417 33 0 0.0 0.0 0.00 0.46 0.00 71 1003.8
20150327095217 33 0 0.0 0.0 0.00 0.53 0.00 71 1003.6
20150327095117 33 0 0.0 0.0 0.00 0.53 0.00 71 1003.6
20150327094917 33 270 0.0 1.0 0.00 0.53 0.00 71 1003.6
20150327094816 33 270 0.0 1.0 0.00 0.53 0.00 70 1003.6
20150327094617 33 270 0.0 2.0 0.00 0.53 0.00 71 1003.6
20150327094417 33 270 0.0 2.0 0.00 0.54 0.00 71 1003.6
20150327094317 33 270 0.0 2.0 0.00 0.54 0.00 71 1003.5
20150327094017 33 270 0.0 3.0 0.00 0.54 0.00 70 1003.6
20150327093917 33 270 1.0 3.0 0.00 0.54 0.00 70 1003.7
20150327093717 33 270 1.0 3.0 0.00 0.58 0.00 70 1003.6
20150327093517 33 270 1.0 3.0 0.00 0.58 0.00 71 1003.5
20150327093317 33 270 1.0 3.0 0.00 0.58 0.00 71 1003.7
20150327092917 33 270 2.0 3.0 0.00 0.63 0.00 72 1003.7
20150327092617 33 270 1.0 2.0 0.00 0.63 0.00 73 1003.9
20150327092417 33 270 1.0 2.0 0.00 0.63 0.00 73 1003.6
20150327092317 33 270 1.0 1.0 0.00 0.63 0.00 73 1003.7
20150327092217 33 270 0.0 1.0 0.00 0.63 0.00 73 1003.6
20150327091817 33 270 0.0 2.0 0.00 0.63 0.00 72 1003.8
20150327091617 33 270 0.0 2.0 0.00 0.63 0.00 73 1003.6
20150327091517 33 270 1.0 2.0 0.00 0.63 0.00 73 1003.6
20150327091417 33 270 1.0 2.0 0.00 0.63 0.00 73 1003.6
20150327091216 33 270 1.0 2.0 0.00 0.63 0.00 73 1003.6
20150327091117 33 270 1.0 2.0 0.00 0.63 0.00 73 1003.6
20150327091017 33 270 1.0 2.0 0.00 0.63 0.00 74 1003.7
20150327090917 33 270 1.0 2.0 0.00 0.63 0.00 74 1003.5
20150327090817 33 270 1.0 2.0 0.00 0.63 0.00 74 1003.5
20150327090617 33 270 1.0 2.0 0.00 0.63 0.00 74 1003.7
20150327090417 33 270 0.0 3.0 0.00 0.63 0.00 74 1003.6
20150327090317 33 270 1.0 3.0 0.00 0.64 0.00 74 1003.5
20150327090117 33 270 1.0 3.0 0.00 0.64 0.00 74 1003.8
20150327090017 33 270 0.0 3.0 0.00 0.64 0.00 74 1003.6
20150327085817 33 270 1.0 3.0 0.00 0.64 0.00 75 1003.6
20150327085616 33 270 1.0 3.0 0.00 0.64 0.00 75 1003.5
20150327085517 33 270 1.0 3.0 0.00 0.64 0.00 75 1003.6
20150327085317 33 270 0.0 2.0 0.00 0.64 0.00 76 1003.6
20150327085217 33 270 0.0 2.0 0.00 0.64 0.00 76 1003.7
20150327085016 33 270 1.0 2.0 0.00 0.64 0.00 77 1003.5
20150327084917 33 270 0.0 1.0 0.00 0.64 0.00 77 1003.5
20150327084817 33 270 0.0 1.0 0.00 0.64 0.00 77 1003.6
20150327084717 33 270 1.0 1.0 0.00 0.64 0.00 77 1003.5
20150327084617 33 270 0.0 1.0 0.00 0.64 0.00 77 1003.5
20150327084516 33 270 0.0 1.0 0.00 0.64 0.00 77 1003.5
20150327084417 33 270 0.0 1.0 0.00 0.64 0.00 77 1003.5
20150327084317 33 270 1.0 1.0 0.00 0.64 0.00 77 1003.6
20150327084217 33 270 0.0 1.0 0.00 0.64 0.00 77 1003.5
20150327084016 33 270 0.0 1.0 0.00 0.64 0.00 77 1003.5
20150327083916 33 270 0.0 1.0 0.00 0.64 0.00 77 1003.6
20150327083717 33 270 0.0 1.0 0.00 0.64 0.00 77 1003.5
20150327083617 33 0 0.0 0.0 0.00 0.64 0.00 77 1003.7
20150327083517 33 0 0.0 0.0 0.00 0.64 0.00 77 1003.5
20150327083416 33 0 0.0 0.0 0.00 0.64 0.00 76 1003.6
20150327083317 33 0 0.0 0.0 0.00 0.64 0.00 76 1003.6
20150327083217 33 0 0.0 0.0 0.00 0.64 0.00 76 1003.5
20150327083117 33 0 0.0 0.0 0.00 0.64 0.00 76 1003.8
20150327082917 33 270 0.0 1.0 0.00 0.64 0.00 76 1003.6
20150327082816 33 270 0.0 1.0 0.00 0.64 0.00 76 1003.6
20150327082617 34 270 0.0 1.0 0.00 0.64 0.00 76 1003.8
20150327082417 33 270 0.0 1.0 0.00 0.64 0.00 76 1003.7
20150327082317 33 270 0.0 1.0 0.00 0.64 0.00 76 1003.8
20150327082117 34 270 0.0 1.0 0.00 0.64 0.00 76 1003.8
20150327082017 34 270 0.0 1.0 0.00 0.64 0.00 76 1003.8
20150327081917 34 270 0.0 1.0 0.00 0.64 0.00 76 1003.9
20150327081617 34 270 0.0 1.0 0.00 0.64 0.00 76 1003.8
20150327081517 33 270 0.0 1.0 0.00 0.64 0.00 76 1003.8
20150327081217 34 270 0.0 1.0 0.00 0.64 0.00 75 1004.0
20150327081016 34 270 0.0 1.0 0.00 0.64 0.00 75 1004.0
20150327080917 34 270 1.0 1.0 0.00 0.64 0.00 74 1003.9
20150327080817 34 270 1.0 1.0 0.00 0.64 0.00 74 1004.0
20150327080717 34 270 0.0 1.0 0.00 0.64 0.00 74 1003.9
20150327080617 34 270 0.0 1.0 0.00 0.64 0.00 74 1004.1
20150327080517 34 270 0.0 2.0 0.00 0.64 0.00 74 1003.9
20150327080317 34 270 0.0 2.0 0.00 0.64 0.00 74 1004.0
20150327080116 34 270 0.0 2.0 0.00 0.64 0.00 74 1004.0
20150327080016 34 270 0.0 2.0 0.00 0.64 0.00 74 1003.8
20150327075917 34 270 0.0 2.0 0.00 0.64 0.00 73 1004.0
20150327075516 34 270 1.0 2.0 0.00 0.64 0.00 73 1004.0
20150327075416 34 270 0.0 2.0 0.00 0.64 0.00 73 1004.1
20150327075217 34 270 0.0 2.0 0.00 0.64 0.00 73 1003.9
20150327074816 34 272 1.0 5.0 0.00 0.64 0.00 73 1004.0
20150327074717 34 272 0.0 5.0 0.00 0.64 0.00 73 1004.0
20150327074617 35 272 1.0 5.0 0.00 0.64 0.00 72 1004.0
20150327074517 35 272 1.0 5.0 0.00 0.64 0.00 72 1004.0
20150327074417 35 272 1.0 5.0 0.00 0.64 0.00 72 1004.0
20150327074317 35 272 1.0 5.0 0.00 0.64 0.00 72 1004.0
20150327074216 35 272 1.0 5.0 0.00 0.64 0.00 73 1004.1
20150327074117 35 272 3.0 5.0 0.00 0.64 0.00 73 1004.1
20150327074017 35 272 1.0 4.0 0.00 0.64 0.00 73 1004.2
20150327073917 35 275 1.0 4.0 0.00 0.64 0.00 73 1004.3
20150327073817 35 278 1.0 4.0 0.00 0.64 0.00 73 1004.0
20150327073616 35 279 1.0 4.0 0.00 0.64 0.00 73 1004.1
20150327073517 35 276 1.0 4.0 0.00 0.64 0.00 73 1004.0
20150327073417 35 273 1.0 4.0 0.00 0.64 0.00 73 1004.2
20150327073217 35 268 1.0 4.0 0.00 0.64 0.00 73 1004.2
20150327073116 35 268 3.0 4.0 0.00 0.64 0.00 73 1004.2
20150327073017 35 268 1.0 4.0 0.00 0.64 0.00 73 1004.1
20150327072917 35 260 2.0 4.0 0.00 0.64 0.00 73 1004.3
20150327072717 35 254 3.0 3.0 0.00 0.64 0.00 73 1004.4
20150327072616 35 252 1.0 3.0 0.00 0.64 0.00 73 1004.2
20150327072317 35 248 1.0 7.0 0.00 0.64 0.00 74 1004.2
20150327072217 35 256 1.0 7.0 0.00 0.64 0.00 73 1004.2
20150327072116 35 256 1.0 7.0 0.00 0.64 0.00 73 1004.2
20150327071917 35 253 1.0 7.0 0.00 0.64 0.00 74 1004.1
20150327071817 35 254 1.0 7.0 0.00 0.64 0.00 74 1004.3
20150327071717 35 249 1.0 7.0 0.00 0.64 0.00 74 1004.3
20150327071617 35 250 1.0 7.0 0.00 0.64 0.00 74 1004.1
20150327071117 35 263 1.0 4.0 0.00 0.64 0.00 74 1004.1
20150327070817 35 267 1.0 4.0 0.00 0.64 0.00 74 1004.0
20150327070717 35 267 2.0 5.0 0.00 0.64 0.00 74 1004.1
20150327070617 36 263 2.0 5.0 0.00 0.64 0.00 73 1003.9
20150327070416 35 263 1.0 5.0 0.00 0.64 0.00 75 1004.0
20150327070217 35 263 1.0 5.0 0.00 0.64 0.00 75 1004.0
20150327070117 36 260 1.0 5.0 0.00 0.64 0.00 74 1003.9
20150327070017 36 259 2.0 5.0 0.00 0.64 0.00 74 1004.0
20150327065817 36 257 2.0 5.0 0.00 0.64 0.00 75 1004.1
20150327065717 36 259 3.0 5.0 0.00 0.64 0.00 75 1003.8
20150327065617 36 266 2.0 4.0 0.00 0.64 0.00 75 1003.9
20150327065517 36 266 1.0 4.0 0.00 0.64 0.00 76 1004.0
20150327065416 36 266 2.0 5.0 0.00 0.64 0.00 76 1004.0
20150327065117 36 270 1.0 6.0 0.00 0.64 0.00 76 1004.0
20150327064917 36 270 1.0 6.0 0.00 0.64 0.00 76 1004.0
20150327064517 36 270 1.0 6.0 0.00 0.64 0.00 76 1003.9
20150327064417 36 270 2.0 6.0 0.00 0.64 0.00 76 1004.0
20150327064316 36 279 3.0 9.0 0.00 0.64 0.00 77 1003.9
20150327064217 36 278 1.0 9.0 0.00 0.64 0.00 77 1003.8
20150327064117 36 278 4.0 9.0 0.00 0.64 0.00 77 1003.8
20150327063817 36 278 1.0 9.0 0.00 0.64 0.00 79 1004.0
20150327063716 36 275 2.0 9.0 0.00 0.64 0.00 79 1003.9
20150327063517 36 275 3.0 9.0 0.00 0.64 0.00 81 1004.0
20150327063417 36 275 5.0 9.0 0.00 0.64 0.00 81 1003.9
20150327063317 36 267 1.0 7.0 0.00 0.64 0.00 81 1003.8
20150327063216 36 268 2.0 7.0 0.00 0.64 0.00 81 1004.0
20150327063116 37 266 3.0 7.0 0.00 0.64 0.00 82 1004.0
20150327063016 37 266 1.0 7.0 0.00 0.64 0.00 82 1003.9
20150327062917 36 265 3.0 7.0 0.00 0.64 0.00 82 1003.9
20150327062817 36 265 1.0 7.0 0.00 0.64 0.00 82 1003.8
20150327062717 37 268 3.0 7.0 0.00 0.64 0.00 83 1004.0
20150327062616 37 268 2.0 7.0 0.00 0.64 0.00 83 1003.8
20150327062517 37 267 2.0 7.0 0.00 0.64 0.00 84 1004.0
20150327062317 36 265 1.0 2.0 0.00 0.64 0.00 84 1003.9
20150327062217 36 268 1.0 2.0 0.00 0.64 0.00 84 1004.1
20150327062116 36 270 1.0 1.0 0.00 0.64 0.00 85 1004.1
20150327062017 36 258 0.0 2.0 0.00 0.64 0.00 85 1004.0
20150327061717 36 231 0.0 4.0 0.00 0.64 0.00 85 1004.2
20150327061616 36 218 1.0 4.0 0.00 0.64 0.00 85 1004.3
20150327061417 36 202 1.0 4.0 0.00 0.64 0.00 85 1004.5
20150327061317 36 194 1.0 4.0 0.00 0.64 0.00 85 1004.6
20150327061217 36 189 0.0 4.0 0.00 0.64 0.00 85 1004.3
20150327061116 36 188 1.0 4.0 0.00 0.64 0.00 85 1004.4
20150327061017 36 188 0.0 4.0 0.00 0.64 0.00 85 1004.5
20150327060917 36 188 0.0 4.0 0.00 0.64 0.00 85 1004.5
20150327060717 36 188 0.0 3.0 0.00 0.64 0.00 85 1004.4
20150327060617 36 195 1.0 3.0 0.00 0.64 0.00 84 1004.3
20150327060017 36 232 1.0 3.0 0.00 0.64 0.00 84 1004.2
20150327055917 36 230 1.0 3.0 0.00 0.64 0.00 84 1004.2
20150327055717 36 229 1.0 3.0 0.00 0.64 0.00 84 1004.1
20150327055516 36 230 0.0 3.0 0.00 0.64 0.00 84 1004.2
20150327055116 37 227 1.0 4.0 0.00 0.64 0.00 84 1004.3
20150327054817 37 222 0.0 7.0 0.00 0.64 0.00 84 1004.3
20150327054717 37 223 1.0 7.0 0.00 0.64 0.00 84 1004.3
20150327054416 37 224 2.0 7.0 0.00 0.64 0.00 84 1004.3
20150327054317 37 228 1.0 7.0 0.00 0.64 0.00 84 1004.2
20150327054217 37 226 0.0 7.0 0.00 0.64 0.00 84 1004.4
20150327054117 37 216 0.0 7.0 0.00 0.64 0.00 84 1004.4
20150327054017 37 222 5.0 7.0 0.00 0.64 0.00 84 1004.2
20150327053917 37 236 0.0 3.0 0.00 0.64 0.00 84 1004.3
20150327053816 37 238 1.0 3.0 0.00 0.64 0.00 84 1004.2
20150327053716 37 233 1.0 3.0 0.00 0.64 0.00 84 1004.3
20150327053617 36 228 0.0 3.0 0.00 0.64 0.00 84 1004.1
20150327053517 36 223 0.0 3.0 0.00 0.64 0.00 84 1004.1
20150327053317 37 209 0.0 3.0 0.00 0.64 0.00 84 1004.2
20150327053216 37 207 0.0 3.0 0.00 0.64 0.00 84 1004.3
20150327053017 37 204 1.0 2.0 0.00 0.64 0.00 84 1004.1
20150327052917 37 196 1.0 2.0 0.00 0.64 0.00 84 1004.1
20150327052817 37 192 0.0 2.0 0.00 0.64 0.00 84 1004.2
20150327052616 37 188 0.0 2.0 0.00 0.64 0.00 84 1004.2
20150327052317 37 184 1.0 2.0 0.00 0.64 0.00 84 1004.3
20150327052116 37 189 1.0 2.0 0.00 0.64 0.00 83 1004.1
20150327052017 37 188 1.0 2.0 0.00 0.64 0.00 83 1004.0
20150327051917 37 185 0.0 2.0 0.00 0.64 0.00 83 1003.9
20150327051817 37 185 0.0 2.0 0.00 0.64 0.00 83 1003.9
20150327051717 37 185 0.0 2.0 0.00 0.64 0.00 83 1004.1
20150327051616 37 182 1.0 2.0 0.00 0.64 0.00 83 1004.1
20150327051317 37 181 0.0 3.0 0.00 0.64 0.00 82 1003.9
20150327051217 37 181 0.0 3.0 0.00 0.64 0.00 82 1003.8
20150327051116 37 181 0.0 3.0 0.00 0.64 0.00 82 1003.9
20150327051017 37 181 1.0 3.0 0.00 0.64 0.00 86 1004.0
20150327050817 38 181 0.0 3.0 0.00 0.64 0.00 86 1003.9
20150327050717 38 181 1.0 3.0 0.00 0.64 0.00 86 1004.0
20150327050617 38 181 1.0 3.0 0.00 0.64 0.00 86 1004.0
20150327050417 38 181 1.0 3.0 0.00 0.64 0.00 85 1004.4
20150327050117 38 181 1.0 3.0 0.00 0.64 0.00 86 1004.4
20150327050017 38 181 1.0 3.0 0.00 0.64 0.00 86 1004.4
20150327045917 38 181 1.0 3.0 0.00 0.64 0.00 86 1004.3
20150327045817 38 181 1.0 3.0 0.00 0.64 0.00 86 1004.4
20150327045717 38 181 1.0 5.0 0.00 0.64 0.00 86 1004.4
20150327045617 38 181 1.0 5.0 0.00 0.64 0.00 86 1004.3
20150327045516 38 181 0.0 5.0 0.00 0.64 0.00 86 1004.3
20150327045317 38 181 1.0 5.0 0.00 0.64 0.00 86 1004.3
20150327045117 38 181 1.0 5.0 0.00 0.64 0.00 86 1004.2
20150327045017 38 181 2.0 5.0 0.00 0.64 0.00 86 1004.2
20150327044617 38 181 2.0 5.0 0.00 0.64 0.00 86 1004.2
20150327044517 38 181 1.0 5.0 0.00 0.64 0.00 86 1004.3
20150327044416 39 181 1.0 5.0 0.00 0.64 0.00 86 1004.1
20150327044217 38 181 3.0 5.0 0.00 0.64 0.00 87 1004.1
20150327044117 39 181 3.0 5.0 0.00 0.64 0.00 87 1004.2
20150327043916 38 181 2.0 5.0 0.00 0.64 0.00 87 1004.3
20150327043817 38 176 2.0 5.0 0.00 0.64 0.00 87 1004.1
20150327043717 38 174 2.0 5.0 0.00 0.64 0.00 87 1004.3
20150327043617 38 174 3.0 5.0 0.00 0.64 0.00 87 1004.4
20150327043417 38 175 3.0 5.0 0.00 0.64 0.00 87 1004.4
20150327043317 39 175 2.0 5.0 0.00 0.64 0.00 87 1004.4
20150327043217 39 175 3.0 5.0 0.00 0.64 0.00 87 1004.5
20150327043117 39 175 3.0 5.0 0.00 0.64 0.00 88 1004.4
20150327043016 39 175 3.0 5.0 0.00 0.64 0.00 88 1004.5
20150327042917 38 175 3.0 5.0 0.00 0.64 0.00 88 1004.6
20150327042617 39 168 2.0 5.0 0.00 0.64 0.00 88 1004.5
20150327042317 39 156 3.0 5.0 0.00 0.64 0.00 89 1004.7
20150327042017 38 141 3.0 5.0 0.00 0.64 0.00 91 1004.8
20150327041717 38 135 2.0 3.0 0.00 0.64 0.00 90 1004.9
20150327041616 38 135 2.0 3.0 0.00 0.64 0.00 90 1004.9
20150327041517 38 135 2.0 3.0 0.00 0.64 0.00 90 1004.9
20150327041216 38 135 2.0 3.0 0.00 0.64 0.00 90 1004.7
20150327041116 38 135 1.0 3.0 0.00 0.64 0.00 90 1004.7
20150327040616 38 129 1.0 3.0 0.00 0.64 0.00 89 1004.7
20150327040417 38 126 1.0 3.0 0.00 0.64 0.00 89 1004.7
20150327040317 38 123 1.0 3.0 0.00 0.64 0.00 89 1004.8
20150327035917 38 114 1.0 3.0 0.00 0.64 0.64 89 1004.7
20150327035616 38 111 2.0 3.0 0.00 0.64 0.64 89 1004.7
20150327035517 38 109 1.0 3.0 0.00 0.64 0.64 89 1004.8
20150327035417 38 111 1.0 3.0 0.00 0.64 0.64 89 1004.7
20150327035317 38 110 2.0 3.0 0.00 0.64 0.64 89 1004.7
20150327035217 38 112 1.0 3.0 0.00 0.64 0.64 89 1004.7
20150327035116 39 112 1.0 3.0 0.00 0.64 0.64 89 1004.8
20150327035016 39 112 2.0 3.0 0.00 0.64 0.64 89 1004.7
20150327034616 38 101 1.0 3.0 0.00 0.64 0.64 89 1004.7
20150327034516 38 98 2.0 3.0 0.00 0.64 0.64 89 1004.8
20150327034417 38 96 1.0 3.0 0.00 0.64 0.64 89 1004.9
20150327034317 38 100 1.0 3.0 0.00 0.64 0.64 89 1004.9
20150327034216 38 101 1.0 2.0 0.00 0.64 0.64 89 1004.8
20150327034116 38 103 1.0 2.0 0.00 0.64 0.64 89 1004.6
20150327033817 38 131 1.0 2.0 0.00 0.64 0.64 88 1004.7
20150327033617 38 159 1.0 2.0 0.00 0.64 0.64 88 1004.8
20150327033417 38 181 1.0 2.0 0.00 0.64 0.64 88 1004.5
20150327033217 38 181 0.0 2.0 0.00 0.64 0.64 88 1004.6
20150327033117 38 181 0.0 2.0 0.00 0.64 0.64 88 1004.4
20150327033016 38 181 1.0 2.0 0.00 0.64 0.64 88 1004.5
20150327032917 38 181 1.0 2.0 0.00 0.64 0.64 88 1004.5
20150327032817 38 181 1.0 2.0 0.00 0.64 0.64 89 1004.4
20150327032616 38 181 1.0 2.0 0.00 0.64 0.64 89 1004.4
20150327032517 38 181 1.0 2.0 0.00 0.64 0.64 89 1004.3
20150327032417 38 181 1.0 2.0 0.00 0.64 0.64 89 1004.5
20150327032317 38 181 1.0 2.0 0.00 0.64 0.64 90 1004.4
20150327032117 38 181 1.0 2.0 0.00 0.64 0.64 90 1004.3
20150327031717 38 181 1.0 2.0 0.00 0.64 0.64 90 1004.2
20150327031617 38 181 1.0 2.0 0.00 0.64 0.64 90 1004.2
20150327031517 38 181 1.0 2.0 0.00 0.64 0.64 90 1004.4
20150327031416 38 181 1.0 2.0 0.00 0.64 0.64 90 1004.3
20150327031316 38 181 1.0 2.0 0.00 0.64 0.64 90 1004.2
20150327031217 38 181 0.0 1.0 0.00 0.64 0.64 90 1004.4
20150327031117 38 181 1.0 1.0 0.00 0.64 0.64 89 1004.2
20150327031017 38 181 1.0 1.0 0.00 0.64 0.64 89 1004.3
20150327030917 38 181 0.0 1.0 0.00 0.64 0.64 89 1004.3
20150327030817 38 181 0.0 1.0 0.00 0.64 0.64 89 1004.2
20150327030717 38 181 0.0 1.0 0.00 0.64 0.64 89 1004.2
20150327030317 39 181 0.0 1.0 0.00 0.64 0.64 88 1004.2
20150327025916 39 181 0.0 1.0 0.00 0.64 0.64 88 1004.2
20150327025717 39 181 0.0 1.0 0.00 0.64 0.64 88 1004.2
20150327025617 39 181 0.0 1.0 0.00 0.64 0.64 88 1004.2
20150327025517 39 181 1.0 1.0 0.00 0.64 0.64 88 1004.2
20150327025317 39 181 1.0 1.0 0.00 0.64 0.64 87 1004.4
20150327025217 39 181 1.0 1.0 0.00 0.64 0.64 87 1004.5
20150327025117 39 181 0.0 1.0 0.00 0.64 0.64 87 1004.3
20150327025017 39 0 0.0 0.0 0.00 0.64 0.64 87 1004.1
20150327024916 39 0 0.0 0.0 0.00 0.64 0.64 87 1004.0
20150327024617 39 0 0.0 0.0 0.00 0.64 0.64 87 1004.2
20150327024416 39 0 0.0 0.0 0.00 0.64 0.64 88 1004.4
20150327024316 39 0 0.0 0.0 0.00 0.64 0.64 88 1004.4
20150327024117 39 0 0.0 0.0 0.00 0.64 0.64 88 1004.2
20150327023917 39 0 0.0 0.0 0.00 0.64 0.64 88 1004.4
20150327023817 39 0 0.0 0.0 0.00 0.64 0.64 87 1004.5
20150327023617 39 0 0.0 0.0 0.00 0.64 0.64 89 1004.7
20150327023517 39 181 0.0 1.0 0.00 0.64 0.64 89 1004.7
20150327023417 39 181 0.0 1.0 0.00 0.64 0.64 89 1004.7
20150327023216 39 181 0.0 1.0 0.00 0.64 0.64 89 1004.5
20150327023017 39 181 0.0 1.0 0.00 0.64 0.64 89 1004.7
20150327022917 39 181 0.0 1.0 0.00 0.64 0.64 89 1004.7
20150327022817 39 181 0.0 1.0 0.00 0.64 0.64 89 1004.7
20150327022716 39 181 0.0 1.0 0.00 0.64 0.64 89 1004.6
20150327022616 39 181 0.0 1.0 0.00 0.64 0.64 89 1004.6
20150327022216 39 192 0.0 1.0 0.00 0.64 0.64 89 1004.6
20150327022117 39 211 0.0 1.0 0.00 0.64 0.64 89 1004.5
20150327022016 39 232 0.0 1.0 0.00 0.64 0.64 88 1004.6
20150327021918 39 255 0.0 1.0 0.00 0.64 0.64 88 1004.7
20150327021817 39 266 0.0 1.0 0.00 0.64 0.64 87 1004.6
20150327021616 39 252 0.0 2.0 0.00 0.64 0.64 87 1004.5
20150327021416 39 208 0.0 2.0 0.00 0.64 0.64 86 1004.5
20150327021317 39 189 0.0 2.0 0.00 0.64 0.64 86 1004.3
20150327021117 39 156 1.0 2.0 0.00 0.64 0.64 87 1004.2
20150327021016 39 146 1.0 2.0 0.00 0.64 0.64 87 1004.4
20150327020617 40 129 1.0 2.0 0.00 0.64 0.64 87 1004.4
20150327020416 40 136 1.0 2.0 0.00 0.64 0.64 87 1004.6
20150327020316 40 139 1.0 2.0 0.00 0.64 0.64 87 1004.4
20150327020017 40 202 1.0 2.0 0.00 0.64 0.64 87 1004.3
20150327015917 40 262 1.0 2.0 0.00 0.64 0.64 87 1004.5
20150327015816 40 270 1.0 2.0 0.00 0.64 0.64 87 1004.2
20150327015716 40 270 1.0 2.0 0.00 0.64 0.64 87 1004.1
20150327015616 40 270 0.0 1.0 0.00 0.64 0.64 87 1004.0
20150327015417 40 270 0.0 1.0 0.00 0.64 0.64 87 1003.8
20150327015317 40 270 0.0 1.0 0.00 0.64 0.64 87 1004.0
20150327015216 40 270 0.0 2.0 0.00 0.64 0.64 87 1004.1
20150327015116 40 269 0.0 2.0 0.00 0.64 0.64 87 1004.1
20150327015016 40 266 0.0 2.0 0.00 0.64 0.64 87 1004.2
20150327014817 40 258 1.0 2.0 0.00 0.64 0.64 87 1004.1
20150327014617 40 251 0.0 3.0 0.00 0.64 0.64 87 1003.9
20150327014516 40 252 0.0 3.0 0.00 0.64 0.64 87 1004.0
20150327014417 40 253 0.0 3.0 0.00 0.64 0.64 87 1004.2
20150327014217 40 251 1.0 3.0 0.00 0.64 0.64 87 1004.2
20150327014116 40 247 1.0 3.0 0.00 0.64 0.64 87 1004.1
20150327014016 40 246 0.0 3.0 0.00 0.64 0.64 87 1004.1
20150327013717 40 244 1.0 3.0 0.00 0.64 0.64 87 1004.4
20150327013417 40 227 1.0 2.0 0.00 0.64 0.64 87 1004.3
20150327013316 40 217 1.0 2.0 0.00 0.64 0.64 88 1004.5
20150327013216 40 210 1.0 2.0 0.00 0.64 0.64 88 1004.4
20150327013117 40 204 1.0 2.0 0.00 0.64 0.64 88 1004.3
20150327013017 40 198 1.0 2.0 0.00 0.64 0.64 88 1004.4
20150327012917 40 193 1.0 2.0 0.00 0.64 0.64 88 1004.4
20150327012816 40 187 1.0 2.0 0.00 0.64 0.64 88 1004.6
20150327012716 40 184 0.0 2.0 0.00 0.64 0.64 88 1004.6
20150327012617 40 183 0.0 2.0 0.00 0.64 0.64 88 1004.8
20150327012517 40 181 0.0 2.0 0.00 0.64 0.64 88 1004.7
20150327012417 40 184 0.0 2.0 0.00 0.64 0.64 88 1004.9
20150327012216 40 194 1.0 2.0 0.00 0.64 0.64 88 1004.7
20150327011917 40 212 0.0 4.0 0.00 0.64 0.64 87 1004.3
20150327011817 40 221 0.0 4.0 0.00 0.64 0.64 87 1004.3
20150327011716 40 231 0.0 4.0 0.00 0.64 0.64 87 1004.3
20150327011616 40 241 0.0 4.0 0.00 0.64 0.64 87 1004.0
20150327011516 40 249 0.0 4.0 0.00 0.64 0.64 87 1004.1
20150327011417 40 246 0.0 4.0 0.00 0.64 0.64 87 1004.0
20150327011317 40 242 1.0 4.0 0.00 0.64 0.64 87 1004.0
20150327011017 40 231 1.0 3.0 0.00 0.64 0.64 87 1003.9
20150327010516 40 198 1.0 3.0 0.00 0.64 0.64 88 1003.7
20150327010416 40 193 1.0 5.0 0.00 0.64 0.64 88 1003.9
20150327010217 40 186 1.0 5.0 0.00 0.64 0.64 88 1003.9
20150327010117 40 188 1.0 5.0 0.00 0.64 0.64 88 1003.8
20150327010016 40 191 1.0 5.0 0.00 0.64 0.64 88 1003.9
20150327005916 40 195 1.0 5.0 0.00 0.64 0.64 87 1003.9
20150327005816 40 198 0.0 5.0 0.00 0.64 0.64 87 1003.9
20150327005716 40 199 0.0 5.0 0.00 0.64 0.64 87 1003.6
20150327005517 40 201 3.0 5.0 0.00 0.64 0.64 88 1003.6
20150327005417 40 209 3.0 5.0 0.00 0.64 0.64 88 1003.4
20150327005216 40 236 3.0 5.0 0.00 0.64 0.64 88 1003.5
20150327005116 40 244 0.0 4.0 0.00 0.64 0.64 88 1003.4
20150327004817 40 244 0.0 4.0 0.00 0.64 0.64 88 1003.7
20150327004616 40 254 1.0 5.0 0.00 0.64 0.64 88 1003.4
20150327004517 40 260 1.0 5.0 0.00 0.64 0.64 88 1003.3
20150327004317 40 269 2.0 5.0 0.00 0.64 0.64 88 1003.4
20150327004116 40 269 1.0 5.0 0.00 0.64 0.64 89 1003.6
20150327003917 41 270 0.0 5.0 0.00 0.64 0.64 88 1003.3
20150327003817 41 270 1.0 5.0 0.00 0.64 0.64 88 1003.4
20150327003616 40 263 1.0 4.0 0.00 0.64 0.64 89 1003.4
20150327003516 41 253 0.0 4.0 0.00 0.64 0.64 89 1003.3
20150327003317 40 189 1.0 3.0 0.00 0.64 0.64 89 1003.4
20150327003117 40 176 1.0 3.0 0.00 0.64 0.64 89 1003.5
20150327002917 40 165 0.0 3.0 0.00 0.64 0.64 89 1003.6
20150327002717 40 171 1.0 3.0 0.00 0.64 0.64 88 1003.7
20150327002616 40 178 1.0 3.0 0.00 0.64 0.64 88 1003.7
20150327002516 41 197 1.0 3.0 0.00 0.64 0.64 88 1003.8
20150327002417 41 223 1.0 4.0 0.00 0.64 0.64 87 1003.9
20150327002317 41 237 0.0 4.0 0.00 0.64 0.64 87 1003.8
20150327002116 41 232 0.0 4.0 0.00 0.64 0.64 87 1003.8
20150327002016 40 224 2.0 4.0 0.00 0.64 0.64 88 1003.6
20150327001817 41 215 0.0 4.0 0.00 0.64 0.64 88 1003.6
20150327001717 41 219 1.0 4.0 0.00 0.64 0.64 87 1003.5
20150327001616 41 230 0.0 4.0 0.00 0.64 0.64 87 1003.5
20150327001417 41 232 1.0 3.0 0.00 0.64 0.64 88 1003.5
20150327001317 40 238 1.0 3.0 0.00 0.64 0.64 88 1003.6
20150327001116 41 248 2.0 3.0 0.00 0.64 0.64 87 1003.3
20150327001017 40 260 1.0 3.0 0.00 0.64 0.64 88 1003.4
20150327000924 41 266 1.0 3.0 0.00 0.64 0.64 88 1003.3
20150327000818 40 270 0.0 8.0 0.00 0.64 0.64 88 1003.3
20150327000716 41 269 1.0 8.0 0.00 0.64 0.64 87 1003.4
20150327000617 41 268 1.0 8.0 0.00 0.64 0.64 87 1003.1
20150327000521 41 268 1.0 8.0 0.00 0.64 0.64 87 1003.3
20150327000417 41 267 1.0 8.0 0.00 0.64 0.64 87 1003.1
20150327000316 41 266 1.0 8.0 0.00 0.64 0.64 87 1003.1
20150327000216 41 264 1.0 8.0 0.00 0.64 0.64 87 1002.9
20150327000117 41 260 1.0 8.0 0.00 0.64 0.64 87 1003.0
20150326235917 41 260 3.0 8.0 0.00 0.64 0.64 89 1002.9
20150326235817 41 258 3.0 8.0 0.00 0.64 0.64 89 1003.1
20150326235717 41 258 1.0 4.0 0.00 0.64 0.64 89 1002.8
20150326235616 41 260 1.0 4.0 0.00 0.64 0.64 88 1002.8
20150326235417 41 261 1.0 4.0 0.00 0.64 0.64 90 1002.9
20150326235316 41 264 3.0 4.0 0.00 0.64 0.64 90 1002.8
20150326235216 41 267 1.0 3.0 0.00 0.64 0.64 90 1002.7
20150326235017 41 270 2.0 3.0 0.00 0.64 0.64 86 1002.5
20150326234919 41 270 2.0 3.0 0.00 0.64 0.64 86 1002.5
20150326234817 41 270 2.0 3.0 0.00 0.64 0.64 86 1002.5
20150326234616 41 278 2.0 3.0 0.00 0.64 0.64 86 1002.3
20150326234517 41 282 2.0 3.0 0.00 0.64 0.64 86 1002.4
20150326234216 41 308 2.0 4.0 0.00 0.64 0.64 86 1002.3
20150326234117 41 314 2.0 4.0 0.00 0.64 0.64 86 1002.2
20150326234016 41 325 2.0 4.0 0.00 0.64 0.64 86 1002.2
20150326233917 42 325 1.0 4.0 0.00 0.64 0.64 86 1002.1
20150326233717 42 332 1.0 4.0 0.00 0.64 0.64 85 1002.0
20150326233516 42 323 1.0 4.0 0.00 0.64 0.64 85 1002.1
20150326233416 42 312 1.0 4.0 0.00 0.64 0.64 86 1002.1
20150326233317 42 301 1.0 4.0 0.00 0.64 0.64 86 1002.3
20150326233117 41 272 2.0 5.0 0.00 0.64 0.64 87 1002.7
20150326233016 41 263 1.0 5.0 0.00 0.64 0.64 88 1002.7
20150326232916 42 259 1.0 5.0 0.00 0.64 0.64 88 1002.9
20150326232717 41 245 1.0 5.0 0.00 0.64 0.64 88 1002.9
20150326232616 41 240 2.0 5.0 0.00 0.64 0.64 89 1002.7
20150326232516 42 239 2.0 5.0 0.00 0.64 0.64 89 1002.7
20150326232316 42 225 3.0 7.0 0.00 0.64 0.64 89 1002.8
20150326232217 42 217 3.0 7.0 0.00 0.64 0.64 90 1002.7
20150326231517 42 230 3.0 7.0 0.00 0.64 0.64 93 1002.9
20150326231417 42 255 1.0 4.0 0.00 0.64 0.64 93 1002.9
20150326231216 42 249 1.0 4.0 0.00 0.64 0.64 93 1003.0
20150326231116 42 248 0.0 4.0 0.00 0.64 0.64 93 1002.8
20150326230917 42 266 1.0 5.0 0.00 0.64 0.64 93 1002.9
20150326230716 42 270 0.0 5.0 0.00 0.64 0.64 93 1002.9
20150326230317 42 264 0.0 5.0 0.00 0.64 0.64 93 1003.0
20150326230217 42 263 0.0 5.0 0.00 0.64 0.64 93 1002.8
20150326230116 42 268 2.0 5.0 0.00 0.64 0.64 93 1002.9
20150326230017 42 264 2.0 5.0 0.00 0.64 0.64 94 1002.9
20150326225816 42 253 0.0 4.0 0.00 0.64 0.64 94 1002.7
20150326225716 42 250 0.0 4.0 0.00 0.64 0.64 94 1002.8
20150326225516 42 245 1.0 4.0 0.00 0.64 0.64 94 1002.9
20150326225417 42 250 2.0 4.0 0.00 0.64 0.64 94 1002.7
20150326225317 42 247 1.0 5.0 0.00 0.64 0.64 94 1002.9
20150326225216 42 251 1.0 5.0 0.00 0.64 0.64 94 1002.8
20150326225116 42 249 1.0 9.0 0.00 0.64 0.64 94 1002.6
20150326225016 42 253 1.0 9.0 0.00 0.64 0.64 94 1002.7
20150326224717 42 249 0.0 9.0 0.00 0.64 0.64 94 1002.7
20150326224616 42 249 1.0 9.0 0.00 0.64 0.64 94 1002.5
20150326224516 42 245 2.0 9.0 0.00 0.64 0.64 94 1002.5
20150326224216 42 250 1.0 9.0 0.00 0.64 0.64 94 1002.7
20150326224116 42 252 5.0 9.0 0.00 0.64 0.64 94 1002.5
20150326224016 42 251 3.0 9.0 0.00 0.64 0.64 94 1002.7
20150326223916 42 250 3.0 9.0 0.00 0.64 0.64 94 1003.0
20150326223817 43 256 5.0 8.0 0.00 0.64 0.64 94 1002.9
20150326223717 42 257 2.0 7.0 0.00 0.64 0.64 94 1002.7
20150326223516 42 267 5.0 7.0 0.00 0.64 0.64 94 1002.5
20150326223416 42 266 4.0 6.0 0.00 0.64 0.64 94 1002.5
20150326223316 42 264 3.0 6.0 0.00 0.64 0.64 94 1002.6
20150326223217 42 264 3.0 6.0 0.00 0.64 0.64 95 1003.0
20150326223117 43 265 1.0 6.0 0.00 0.64 0.64 94 1003.0
20150326222916 43 270 1.0 6.0 0.00 0.64 0.64 94 1002.9
20150326222816 43 271 3.0 6.0 0.00 0.64 0.64 93 1002.9
20150326222516 43 265 3.0 6.0 0.00 0.64 0.64 93 1002.6
20150326222416 43 264 2.0 6.0 0.00 0.64 0.64 93 1002.6
20150326222316 43 264 3.0 6.0 0.00 0.64 0.64 93 1002.6
20150326222216 43 260 4.0 6.0 0.00 0.64 0.64 93 1002.3
20150326222117 43 255 4.0 6.0 0.00 0.64 0.64 93 1002.3
20150326222017 43 241 3.0 5.0 0.00 0.64 0.64 93 1002.4
20150326221916 43 227 2.0 5.0 0.00 0.64 0.64 93 1002.3
20150326221816 43 229 1.0 7.0 0.00 0.64 0.64 93 1002.5
20150326221716 44 223 3.0 7.0 0.00 0.64 0.64 93 1002.6
20150326221617 43 210 1.0 7.0 0.00 0.64 0.64 93 1002.4
20150326221517 43 209 3.0 7.0 0.00 0.64 0.64 93 1002.4
20150326221417 43 206 1.0 7.0 0.00 0.64 0.64 93 1002.6
20150326221316 43 201 1.0 7.0 0.00 0.64 0.64 93 1002.3
20150326221116 43 193 1.0 7.0 0.00 0.64 0.64 93 1002.3